Other Public Products
Issued by NWS Grand Forks, ND

Home | Current Version | Previous Version | Graphics & Text | Print | Product List | Glossary On
Versions: 1 2 3 4 5 6 7 8 9 10 11 12 13 14 15 16 17 18 19 20 21 22 23 24 25 26 27 28 29 30 31 32 33 34 35 36 37 38 39 40 41 42 43 44 45 46 47 48 49 50
000
FPUS83 KFGF 280310
OPUFGF
PRAIRIE TO PINES WEATHER ROUNDUP
NATIONAL WEATHER SERVICE EASTERN NORTH DAKOTA/GRAND FORKS ND
1000 PM CDT SUN JUL 27 2014

 **SATELLITE DATA USED TO AUGMENT SKY COVER AT AUTOMATED STATIONS**
 *****  WEATHER ACROSS EASTERN NORTH DAKOTA  *****

CITY           SKY/WX    TMP DP  RH WIND       PRES   REMARKS
GRAND FORKS    CLOUDY    62  58  86 NW5       30.20R
GRAND FORKS AF PTCLDY    59  59  99 NW7       30.22R
GRAND CITY NWS   N/A     63 N/A N/A NW3         N/A
BUXTON         NOT AVBL
DEVILS LAKE    CLOUDY    61  54  77 NW6       30.24R
FARGO          PTCLDY    60  56  86 N6        30.19R
WAHPETON ARPT  CLOUDY    63  54  72 N8        30.19R
$$

 *****  WEATHER ACROSS CENTRAL AND WESTERN NORTH DAKOTA  *****

CITY           SKY/WX    TMP DP  RH WIND       PRES   REMARKS
JAMESTOWN      MOCLDY    60  54  80 N7        30.24R
BISMARCK       CLEAR     62  53  72 N6        30.28S
MINOT          CLEAR     57  52  83 NE3       30.28R
MINOT AFB      CLEAR     58  56  92 CALM      30.27R
GARRISON         N/A     58  53  84 N3        30.29R
WILLISTON      CLEAR     65  52  62 E6        30.28S
DICKINSON      CLEAR     59  51  75 E6        30.29R
HETTINGER      CLEAR     56  52  86 NE6       30.31R
$$

 *****  OTHER OBSERVATIONS NORTHEAST NORTH DAKOTA  *****

CITY           SKY/WX    TMP DP  RH WIND       PRES   REMARKS
WALHALLA         N/A     59  57  94 NW5         N/A
LANGDON        MOCLDY    57  54  88 NW7       30.25R
CAVALIER       FAIR      59  54  82 NW5       30.22R
GRAFTON        CLOUDY    61  55  82 NW5       30.21R
CANDO          CLOUDY    57  55  94 NW5       30.27R
FORT TOTTEN      N/A     62  54  74 N3        29.95S
ROLLA          FAIR      55  55 100 NW7       30.29R
RUGBY          CLOUDY    59  57  94 W3        30.27R
 ***** THE ABOVE OBSERVATIONS ARE NON NWS ARE NOT QUALITY
        CONTROLLED AND MAY MIS-REPORT RAIN FOR SNOW...
$$

 *****  OTHER OBSERVATIONS SOUTHEAST NORTH DAKOTA *****

CITY           SKY/WX    TMP DP  RH WIND       PRES   REMARKS
COOPERSTOWN    NOT AVBL
VALLEY CITY    CLOUDY    63  57  82 N9        30.23R
OAKES          NOT AVBL
GWINNER        CLOUDY    63  57  82 NW6       30.22S
SHEYENNE NWR     N/A     61  55  79 NW2       29.95S
BUFFALO        NOT AVBL
WYNDMERE       NOT AVBL
 ***** THE ABOVE OBSERVATIONS ARE NON NWS ARE NOT QUALITY
       CONTROLLED AND MAY MIS-REPORT RAIN FOR SNOW...
$$

  *****  WEATHER ACROSS NORTHERN MINNESOTA  *****

CITY           SKY/WX    TMP DP  RH WIND       PRES   REMARKS
FLAG ISLAND    CLEAR     68  54  60 N7        30.15R
WARROAD        PTCLDY    61  55  82 W5        30.18R
ROSEAU         PTCLDY    61  54  77 NW6       30.18S
HALLOCK        MOCLDY    63  57  82 NW3       30.20R
THF RVR FALLS  CLOUDY    63  57  82 NW7       30.20R
HALSTAD          N/A     60  57  91 NW5         N/A
FOSSTON        CLOUDY    61  55  82 NW7       30.20R
BAUDETTE       CLOUDY    61  53  75 NW5       30.16R
WASKISH        MOCLDY    64  54  68 CALM      30.16R
CROOKSTON      CLOUDY    63  57  82 N5        30.20S
$$
  *****  WEATHER ACROSS CENTRAL AND WEST MINNESOTA  *****

CITY           SKY/WX    TMP DP  RH WIND       PRES   REMARKS
BEMIDJI        CLOUDY    61  56  83 NW6       30.17R
PARK RAPIDS    CLOUDY    62  59  90 N8        30.17R
WADENA         CLOUDY    61  57  88 CALM      30.17R
DETROIT LAKES  CLOUDY    61  59  94 NW8       30.20R
MOORHEAD       PTCLDY    61  61 100 N5        30.20R
FERGUS FALLS   CLOUDY    63  55  77 N8        30.18R
ELBOW LAKE     MOCLDY    62  58  87 N14       30.17R
MORRIS MN      PTCLDY    61  57  88 NW10      30.17R
STAPLES        CLOUDY    63  55  77 N5        30.16R
WHEATON        NOT AVBL
$$
  *****  WEATHER ELSEWHERE ACROSS MINNESOTA  *****

CITY           SKY/WX    TMP DP  RH WIND       PRES   REMARKS
DULUTH         PTCLDY    57  55  93 W5        30.10R
INTRNTL FALLS  PTCLDY    59  53  80 N5        30.13R
ELY            CLEAR     59  52  77 CALM      30.11R
CLOQUET        CLEAR     57  55  94 W6        30.11R
BRAINERD       CLOUDY    64  56  75 N7        30.14R
HIBBING        CLEAR     56  52  86 CALM      30.12R
ALEXANDRIA     CLOUDY    63  59  87 N10       30.17R
SAINT CLOUD    CLOUDY    66  57  72 NE5       30.13R
MINNEAPOLIS    MOCLDY    67  57  70 NE10G18   30.10R
$$

  *****  WEATHER ACROSS SOUTH DAKOTA  *****

CITY           SKY/WX    TMP DP  RH WIND       PRES   REMARKS
SIOUX FALLS    PTCLDY    64  57  78 N12       30.19R
BROOKINGS      NOT AVBL
WATERTOWN      CLOUDY    62  55  77 N9        30.21R
HURON          PTCLDY    60  54  80 N5        30.23R
SISSETON         N/A     60  56  86 N7        30.19R
ABERDEEN       CLEAR     58  54  86 N6        30.23R
MITCHELL       CLEAR     62  55  77 N7        30.23R
PIERRE         CLEAR     64  55  72 NE9       30.24R
MOBRIDGE       CLEAR     57  52  83 NE7       30.25R
RAPID CITY     CLEAR     63  52  67 NE8       30.30R
$$

  *****  SOME WEATHER IN NEARBY STATES *****

CITY           SKY/WX    TMP DP  RH WIND       PRES   REMARKS
GLASGOW MT     CLEAR     73  46  38 NE9       30.23R
GREAT FALLS MT PTCLDY    79  35  20 NE10      30.18S
CHEYENNE WY    PTCLDY    70  48  45 S9        30.39R
SCOTTSBLUFF NE CLEAR     72  56  57 E8        30.27R
OMAHA NE       PTCLDY    67  57  70 N7        30.15R
DES MOINES IA  CLEAR     69  57  65 NW10      30.08R
DAVENPORT IA   CLEAR     65  60  84 W8        29.97R
CHICAGO IL     MOCLDY    67  59  75 N18G25    29.88R
EAU CLAIRE WI  CLEAR     59  52  77 N5        30.06R
LA CROSSE WI   CLOUDY    67  56  67 N13G21    30.03R
$$

  *****  SOME NATIONAL WEATHER *****

CITY           SKY/WX    TMP DP  RH WIND       PRES   REMARKS
LA GUARDIA NY  CLOUDY    82  70  66 SW10      29.67F
RALEIGH NC     CLOUDY    82  70  66 SW13      29.76F
ATLANTA GA     PTCLDY    83  72  69 SW12      29.97S
NEW ORLEANS LA PTCLDY    82  75  79 W10       30.06R
OKLAHOMA CITY  PTCLDY    82  62  50 NE10      30.09R
ALBUQUERQUE NM PTCLDY    74  54  49 N13       30.25S
SALT LAKE CITY MOCLDY    86  45  23 CALM      30.07R
LOS ANGELES CA MOCLDY    70  64  81 W15       29.93F
BOISE ID       MOCLDY    93  41  16 NW6       29.98S
SEATTLE WA     PTCLDY    79  50  36 N10       30.10R
$$

*** WEATHER ACROSS MANITOBA...SASKATCHEWAN AND ONTARIO ***
                ***ONTARIO***

CITY           SKY/WX    TMP DP  RH WIND       PRES   REMARKS
GERALDTON      CLOUDY    55  50  82 N2        30.03S
THUNDER BAY    PTCLDY    54  52  94 NW6       30.06R
SIOUX LOOKOUT  MOCLDY    52  52 100 N2        30.12S
TORONTO        TSTM      64  61  88 NW10      29.67R
BIG TROUT LK   MOCLDY    64  54  68 NW6       30.04R
PICKLE LAKE    NOT AVBL
DRYDEN         CLEAR     61  52  72 NW6       30.14S
KENORA         MOCLDY    63  52  67 N3        30.17S
$$
                *** MANITOBA***

CITY           SKY/WX    TMP DP  RH WIND       PRES   REMARKS
BRANDON        PTCLDY    57  54  88 NW6       30.27R
DAUPHIN        CLEAR     61  52  72 N2        30.26R
ISLAND LAKE    PTCLDY    66  57  72 W5        30.15S
PILOT MOUND      N/A     55  54  94 NW3         N/A
THE PAS        MOCLDY    61  54  77 CALM      30.25R
THOMPSON       MOCLDY    63  52  67 NW5       30.19R
WINNIPEG       PTCLDY    57  54  88 NW6       30.22R
LYNN LAKE      CLEAR     66  48  52 SW5       30.22S
CHURCHILL      PTCLDY    68  54  60 NW9       30.06S
GILLAM         MOCLDY    63  59  88 CALM      30.12S
$$
                ***SASKATCHEWAN***

CITY           SKY/WX    TMP DP  RH WIND       PRES   REMARKS
ESTEVAN        PTCLDY    63  57  82 NE2       30.30R
KINDERSLEY     PTCLDY    63  59  88 SE7       30.23S
LLOYDMINSTER   PTCLDY    66  57  72 W5        30.22R
PRINCE ALBERT  MOCLDY    59  54  82 SE3       30.26S
REGINA         CLEAR     63  57  82 SE7       30.28R


USA.gov is the U.S. government's official web portal to all federal, state and local government web resources and services.